SCP
0 0 1 1 1 0 1 1 1 1 1 1 1 1 1 1 0 0 0 0 0 0 0 0 0 0 0 0 0 0 0 0 0 0 0 0 0 0 0 0 0 0 0
0 0 0 1 1 1 1 1 1 1 1 1 1 1 1 1 0 0 0 0 0 0 0 0 0 0 0 0 0 0 0 0 0 0 0 0 0 0 0 0 0 0 0
0 0 0 1 1 1 1 1 1 1 1 1 1 0 0 0 0 0 0 0 0 0 0 0 0 0 0 0 0 0 0 0 0 0 0 0 0 0 0 0 0 0 0
0 0 0 1 1 1 1 1 1 1 1 1 0 0 0 0 0 0 0 0 0 0 0 0 0 0 0 0 0 0 0 0 0 0 0 0 0 0 0 0 0 0 0
0 0 0 1 1 1 1 1 1 1 1 1 0 0 0 0 0 0 0 0 0 0 0 0 0 0 0 0 0 0 0 0 0 0 0 0 0 0 0 0 0 0 0
0 0 0 1 1 1 1 1 1 1 1 1 0 0 0 0 0 0 0 0 0 0 0 0 0 0 0 0 0 0 0 0 0 0 0 0 0 0 0 0 0 0 0
0 0 1 1 1 1 1 1 1 1 1 1 0 0 0 0 0 0 0 0 0 0 0 0 0 0 0 0 0 0 0 0 0 0 0 0 0 0 0 0 0 0 0
0 1 1 1 1 1 1 1 1 1 1 1 1 1 0 0 0 0 0 0 0 0 0 0 0 0 0 0 0 0 0 0 0 0 0 0 0 0 0 0 0 0 0
0 1 1 1 1 1 1 1 1 1 1 1 1 1 1 0 0 0 0 0 0 0 0 0 0 0 0 0 0 0 0 0 0 0 0 0 0 0 0 0 0 0 0
0 1 1 1 1 1 1 1 1 2 2 2 2 2 1 1 1 0 0 0 0 0 0 0 0 0 0 0 0 0 0 0 0 0 0 0 0 0 0 0 0 0 0
0 0 1 1 1 1 1 1 1 2 2 2 2 3 2 2 1 1 0 0 0 0 0 0 0 0 0 0 0 0 0 0 0 0 0 0 0 0 0 0 0 0 0
0 1 1 1 1 1 1 1 1 2 2 2 2 3 3 3 2 1 1 1 0 0 0 0 0 1 0 1 1 0 0 1 1 0 0 0 0 0 0 0 0 0 1
1 1 1 1 1 1 1 2 2 2 2 2 2 3 3 3 2 2 1 1 1 1 1 1 1 1 1 1 1 1 1 1 1 1 0 0 1 1 1 1 1 1 1
1 1 1 1 1 2 2 2 2 2 2 2 2 2 3 3 2 2 2 1 1 1 1 1 1 1 1 1 1 1 5 8 5 1 0 0 1 1 1 1 1 1 1
1 1 1 2 2 2 2 2 2 2 2 2 2 2 2 2 2 2 2 2 1 1 1 1 2 2 2 2 2 1 8 14 8 1 1 1 1 1 1 1 1 1 1
2 1 2 2 2 2 2 2 2 2 2 2 2 2 2 2 2 2 2 2 2 2 2 2 2 2 2 2 2 2 5 8 5 1 1 1 1 1 1 1 1 1 1
2 2 2 2 2 2 3 2 2 2 2 2 2 2 2 2 2 2 2 2 2 2 3 3 3 3 3 2 2 2 1 1 1 1 1 1 1 1 1 1 1 2 2
3 2 2 2 2 3 3 3 2 2 2 2 2 2 2 2 2 2 2 2 3 3 3 4 4 4 3 3 2 2 1 1 1 1 1 1 1 1 1 1 1 2 2
3 2 2 2 3 3 3 3 3 2 2 2 2 2 2 2 2 2 2 3 3 3 4 4 4 4 3 3 3 2 2 2 2 1 1 1 1 1 1 1 1 2 2
3 2 2 3 3 3 3 3 2 2 2 2 2 2 2 2 2 3 3 3 3 4 4 4 4 4 3 3 3 2 2 2 2 2 2 2 1 1 1 1 2 2 2
2 2 2 2 3 3 3 2 2 2 2 2 2 2 2 2 3 3 4 3 3 4 4 4 4 4 4 4 3 2 2 2 2 2 2 2 1 1 1 1 2 2 2
2 2 2 2 2 2 3 2 2 2 2 2 2 2 2 2 3 3 3 4 4 4 4 4 4 4 4 4 3 3 2 2 2 2 2 2 1 1 1 1 1 1 1
1 1 1 1 2 2 2 2 2 2 2 2 2 2 2 2 2 2 3 3 4 4 4 4 4 4 4 3 3 3 3 2 2 1 1 1 1 1 1 1 1 1 1
1 1 1 1 1 1 2 2 2 1 1 1 1 1 1 1 1 2 2 2 3 3 3 3 4 4 4 4 3 3 3 2 2 1 1 1 1 0 1 1 1 1 1
0 1 1 1 1 1 1 1 1 1 1 1 0 0 0 0 1 1 1 2 2 2 3 3 3 4 4 4 3 3 3 2 2 1 1 1 0 0 0 1 1 1 1
0 1 1 1 1 1 1 1 1 1 1 1 0 0 0 0 0 1 1 1 2 2 2 3 3 3 4 4 4 3 3 2 2 1 1 1 0 0 0 1 1 1 1
Wind_Speed
7 10 18 18 17 16 15 14 14 15 15 15 15 14 13 13 12 11 10 9 8 8 8 7 8 8 8 8 9 9 10 10 9 10 10 10 9 9 10 11 10 8 11
12 12 18 18 17 16 15 14 14 14 14 14 14 13 13 12 11 10 9 9 8 8 8 7 7 7 7 8 8 8 8 8 8 8 8 7 7 7 8 10 10 7 11
13 11 15 18 17 16 16 15 14 14 13 13 13 12 11 11 10 9 9 8 8 7 7 7 6 6 6 6 7 7 7 6 6 6 6 3 3 5 7 8 10 10 11
13 9 12 18 17 17 16 15 14 14 13 12 12 11 10 10 9 8 8 7 7 7 6 6 6 6 6 5 5 5 5 5 4 4 2 2 2 4 6 7 9 10 10
11 9 12 19 18 17 16 15 14 14 13 12 11 11 10 9 8 8 7 7 6 6 6 6 6 6 5 5 5 5 4 4 4 3 1 2 2 4 6 8 9 10 11
9 8 11 19 18 17 16 15 15 14 13 12 11 10 10 9 8 8 8 7 7 7 6 6 6 6 6 6 6 6 6 6 5 2 2 3 3 6 9 10 11 11 11
10 8 10 18 18 17 16 16 15 14 13 12 11 10 10 9 9 9 9 9 8 8 8 8 8 8 8 8 8 7 7 8 5 4 4 4 5 8 11 12 13 13 13
11 8 8 18 18 17 16 15 14 14 13 12 11 11 10 10 10 10 10 10 10 10 10 10 9 9 9 9 9 9 9 9 7 5 5 5 8 9 11 13 13 14 14
9 7 6 8 12 16 16 15 14 13 12 12 11 11 11 11 11 11 11 11 12 12 11 11 11 11 11 10 10 11 11 11 8 5 6 5 8 11 11 12 14 15 16
7 6 6 6 6 6 8 14 14 13 13 12 12 12 12 12 12 12 11 11 13 13 13 13 13 13 12 11 12 12 13 11 8 8 6 7 12 13 13 13 14 16 16
8 6 5 5 5 5 5 9 11 12 12 12 11 13 11 6 5 6 10 13 14 14 14 14 14 14 13 12 13 14 12 6 8 7 6 11 14 14 15 14 14 15 16
11 9 6 6 5 5 6 5 4 4 5 6 4 5 4 4 4 8 8 15 16 16 16 16 16 15 12 6 9 12 6 8 7 7 7 14 15 16 15 15 14 15 15
9 9 9 8 6 6 4 3 2 2 3 4 5 5 4 3 4 5 4 7 8 11 8 9 9 7 7 6 6 7 8 8 6 6 9 14 15 16 16 15 15 15 15
7 9 8 8 7 7 5 4 3 3 4 4 5 6 5 4 5 5 5 5 5 5 6 6 5 7 8 9 9 9 10 7 7 6 8 15 15 16 16 15 15 15 15
8 9 8 8 8 8 7 5 5 5 5 5 5 6 7 6 6 6 6 6 7 6 6 6 7 8 8 8 8 10 10 10 10 9 6 14 15 16 16 16 16 15 15
9 8 7 9 9 7 7 6 5 4 5 5 6 7 8 7 7 7 7 7 7 6 7 7 8 7 6 6 8 9 9 9 9 9 8 10 15 15 16 16 16 16 15
8 8 7 8 8 8 7 7 6 5 5 5 6 7 8 8 8 8 7 7 7 6 7 6 7 5 5 5 7 8 8 8 8 9 8 7 8 12 15 16 16 16 16
6 6 6 6 7 7 7 6 5 4 5 5 5 5 8 9 9 8 8 8 7 6 6 6 5 4 4 4 5 6 6 6 9 9 8 8 7 7 10 14 15 15 16
5 5 5 4 4 5 6 5 4 4 5 5 5 5 6 8 8 8 8 8 7 7 6 7 5 4 4 5 5 6 6 7 8 9 9 9 9 8 8 10 14 15 16
4 5 4 4 3 3 3 2 3 3 4 4 4 5 6 6 7 7 7 9 7 6 7 6 7 6 5 5 6 8 7 8 7 8 9 8 7 8 8 8 7 8 13
4 4 5 4 3 2 2 1 2 3 3 3 3 4 4 4 5 5 6 6 6 7 8 8 7 7 7 4 4 5 7 8 9 7 7 7 7 8 7 6 6 5 5
4 4 4 4 3 3 2 1 1 2 2 2 2 3 4 4 5 5 5 5 5 6 7 8 7 5 5 5 5 3 4 4 5 6 5 6 6 4 5 5 5 5 5
4 5 4 4 4 3 2 0 1 1 2 2 3 3 4 5 5 5 6 5 5 5 6 7 7 8 7 6 6 5 4 5 2 2 3 3 3 2 3 3 4 4 4
6 4 4 4 3 2 1 1 1 1 2 3 2 3 5 5 6 6 6 5 5 4 6 6 7 7 7 6 5 7 5 3 3 2 2 2 2 2 2 2 2 2 2
5 4 4 4 3 2 2 2 2 2 3 3 3 4 4 4 5 6 6 5 5 5 6 6 6 7 7 7 6 5 6 5 5 4 3 2 1 1 1 1 1 1 1
4 4 4 5 4 3 3 3 3 3 4 4 5 5 4 4 4 5 6 6 6 5 6 6 7 8 7 8 7 5 5 4 5 5 5 3 2 1 1 1 1 1 2
Wind_Direction
163 162 166 159 154 151 148 144 141 138 137 137 137 137 137 137 137 136 134 131 127 125 121 118 116 116 117 117 116 116 117 118 120 121 119 117 116 120 124 122 120 119 121
152 159 165 160 157 154 152 150 147 145 144 144 144 143 143 143 142 142 141 139 137 135 131 129 128 126 125 124 123 123 123 124 128 130 126 120 119 126 135 133 133 134 131
146 157 162 161 159 157 156 155 154 153 152 151 150 150 149 149 149 150 150 150 148 145 143 143 142 140 138 135 134 133 132 133 136 139 130 116 123 136 149 147 147 144 142
146 153 159 163 161 161 161 161 161 161 160 159 158 158 158 158 160 161 162 162 162 160 159 160 161 159 157 156 155 153 153 153 156 156 137 167 188 166 169 168 164 160 156
147 152 165 165 165 166 167 167 168 168 168 168 168 169 170 172 175 177 177 180 183 183 183 183 185 184 184 186 187 188 191 195 203 197 190 229 246 225 203 196 189 181 173
149 153 170 167 169 170 171 173 174 174 175 177 178 181 184 188 193 197 199 202 205 207 209 210 210 210 211 214 216 219 222 227 230 229 236 244 244 245 229 216 210 201 191
151 156 172 171 174 175 176 178 179 180 182 185 187 192 198 203 208 214 216 218 220 223 226 227 228 229 229 231 234 236 239 242 236 227 237 244 247 252 242 227 220 213 205
156 158 170 175 179 181 182 183 185 187 189 192 197 202 209 215 220 225 227 228 229 232 235 237 238 239 241 243 245 247 249 253 254 243 238 240 247 253 249 236 226 218 213
154 156 171 176 181 185 188 190 192 193 196 200 206 212 218 224 230 233 236 238 239 240 242 245 246 248 250 250 252 255 257 258 257 251 253 246 249 253 254 246 234 224 219
152 162 170 171 173 178 189 197 198 201 204 208 214 221 226 232 237 239 241 245 249 249 250 251 252 254 256 256 257 260 263 266 263 261 258 256 256 256 255 252 243 233 225
170 175 174 172 170 170 182 203 204 209 211 214 220 227 231 233 241 250 252 250 252 255 257 257 257 259 260 261 261 262 265 257 261 263 261 261 261 260 257 253 247 240 232
185 187 186 180 175 173 195 202 205 210 212 214 212 224 226 221 230 244 253 257 259 260 261 261 259 260 261 257 261 265 260 259 260 262 261 262 262 262 259 254 249 246 240
184 188 193 192 184 186 198 198 206 212 214 219 219 220 224 229 236 245 247 259 263 266 265 265 264 256 249 246 249 249 252 256 257 258 261 264 263 264 264 258 253 250 247
178 193 192 193 194 198 202 209 210 214 217 222 224 220 219 231 238 241 243 243 243 247 250 253 253 252 250 248 248 250 251 251 251 252 257 263 263 264 266 265 262 257 253
186 193 194 191 199 203 208 219 220 223 228 231 228 224 221 230 239 240 243 243 244 241 242 246 248 252 254 254 253 252 252 251 252 250 254 260 262 262 265 267 266 263 258
190 193 192 192 199 202 211 219 228 228 232 237 237 232 224 228 236 238 242 241 241 239 240 240 244 249 255 260 262 259 257 255 254 253 252 258 260 260 263 265 266 263 257
189 189 191 193 197 205 214 222 228 231 232 237 241 239 233 231 235 237 243 245 243 238 237 240 241 241 250 256 262 266 264 259 256 256 256 255 259 259 259 259 259 259 256
170 175 191 201 199 208 214 223 230 234 236 244 246 244 240 237 235 237 243 247 243 238 234 234 231 232 242 251 262 267 266 266 263 259 257 256 254 257 257 258 258 257 256
147 155 172 184 192 206 214 222 232 240 243 248 252 253 251 248 241 235 241 244 240 237 233 231 224 217 231 241 254 263 262 260 259 260 258 257 254 252 253 257 256 256 257
132 145 157 174 192 196 203 218 237 249 253 253 254 258 260 257 254 244 245 247 240 237 233 225 222 215 218 220 239 252 252 253 252 250 253 258 258 257 254 254 254 254 254
141 155 167 177 188 168 163 192 227 253 261 265 266 274 280 279 275 263 262 257 242 235 234 226 219 220 221 207 225 252 254 249 249 248 247 250 255 257 254 250 250 249 252
176 182 185 187 186 186 185 193 211 244 270 272 291 302 301 301 295 289 279 272 259 247 244 235 222 223 222 196 204 224 256 266 248 240 238 239 243 249 253 253 250 248 247
204 201 198 202 200 204 198 114 360 349 329 321 316 314 314 312 305 298 292 285 275 258 251 244 231 228 231 217 205 201 214 231 252 258 236 232 236 245 258 266 262 261 258
223 215 210 209 211 215 174 168 200 247 274 273 288 294 304 308 309 307 303 296 286 273 261 251 239 234 231 230 217 217 219 194 193 253 266 254 250 248 256 261 270 283 284
232 221 218 212 220 222 203 199 212 245 257 282 295 299 303 305 306 308 306 301 291 277 267 261 253 241 232 229 220 209 218 220 210 213 241 254 278 278 282 269 262 319 11
245 225 215 210 223 221 215 215 217 244 270 292 301 306 306 303 301 306 308 302 293 283 272 265 256 249 239 233 226 215 202 198 200 204 218 223 226 259 330 3 34 27 26